• In Hungary
  • List of Countries
  • For 7 days
  • Water Temperature
  • Satellite Maps
  • Weather Map
  • News
  • Weather Widgets
  • user-avatar
    Login

    Hourly Weather Bobrowa

    Today, 21 September, Friday

    Time Temperature Precipitation Wind Pressure Humidity
    00:00 +19°C° 0 mm 3 mps 743 mmHg 65%
    01:00 +19°C° 0 mm 3 mps 743 mmHg 67%
    02:00 +18°C° 0 mm 3 mps 743 mmHg 69%
    03:00 +18°C° 0 mm 3 mps 742 mmHg 70%
    04:00 +18°C° 0 mm 3 mps 742 mmHg 71%
    05:00 +18°C° 0 mm 3 mps 742 mmHg 69%
    06:00 +18°C° 0 mm 3 mps 742 mmHg 67%
    07:00 +19°C° 0 mm 3 mps 742 mmHg 66%
    08:00 +21°C° 0 mm 4 mps 742 mmHg 59%
    09:00 +23°C° 0 mm 5 mps 741 mmHg 52%
    10:00 +26°C° 0 mm 5 mps 741 mmHg 45%
    11:00 +27°C° 0 mm 6 mps 741 mmHg 42%
    12:00 +28°C° 0 mm 6 mps 740 mmHg 39%
    13:00 +29°C° 0 mm 5 mps 739 mmHg 36%
    14:00 +29°C° 0 mm 5 mps 739 mmHg 39%
    15:00 +28°C° 0 mm 5 mps 738 mmHg 41%
    16:00 +28°C° 0 mm 5 mps 738 mmHg 43%
    17:00 +26°C° 0 mm 5 mps 738 mmHg 47%
    18:00 +25°C° 0 mm 5 mps 737 mmHg 51%
    19:00 +23°C° 0 mm 6 mps 737 mmHg 54%
    20:00 +22°C° 0.2 mm 6 mps 737 mmHg 56%
    21:00 +22°C° 0.2 mm 6 mps 737 mmHg 58%
    22:00 +22°C° 0.2 mm 6 mps 737 mmHg 60%
    23:00 +20°C° 0.6 mm 7 mps 738 mmHg 67%

    Tomorrow, 22 September, Saturday

    Time Temperature Precipitation Wind Pressure Humidity
    00:00 +18°C° 0.6 mm 7 mps 739 mmHg 74%
    01:00 +16°C° 0.6 mm 8 mps 739 mmHg 81%
    02:00 +15°C° 0.8 mm 7 mps 740 mmHg 80%
    03:00 +14°C° 0.8 mm 6 mps 741 mmHg 78%
    04:00 +13°C° 0.8 mm 4 mps 742 mmHg 77%
    05:00 +13°C° 0 mm 4 mps 743 mmHg 75%
    06:00 +13°C° 0 mm 4 mps 743 mmHg 73%
    07:00 +13°C° 0 mm 4 mps 744 mmHg 71%
    08:00 +14°C° 0 mm 5 mps 744 mmHg 65%
    09:00 +14°C° 0 mm 5 mps 744 mmHg 59%
    10:00 +15°C° 0 mm 6 mps 744 mmHg 53%
    11:00 +16°C° 0 mm 6 mps 744 mmHg 50%
    12:00 +17°C° 0 mm 6 mps 744 mmHg 47%
    13:00 +17°C° 0 mm 6 mps 744 mmHg 44%
    14:00 +17°C° 0 mm 6 mps 744 mmHg 45%
    15:00 +17°C° 0 mm 6 mps 743 mmHg 45%
    16:00 +17°C° 0 mm 5 mps 743 mmHg 45%
    17:00 +17°C° 0 mm 4 mps 743 mmHg 48%
    18:00 +16°C° 0 mm 3 mps 744 mmHg 52%
    19:00 +14°C° 0 mm 3 mps 744 mmHg 55%
    20:00 +13°C° 0 mm 3 mps 744 mmHg 56%
    21:00 +13°C° 0 mm 3 mps 744 mmHg 58%
    22:00 +13°C° 0 mm 2 mps 744 mmHg 59%
    23:00 +12°C° 0 mm 3 mps 744 mmHg 60%

    Day after tomorrow, 23 September, Sunday

    Time Temperature Precipitation Wind Pressure Humidity
    00:00 +12°C° 0 mm 3 mps 744 mmHg 61%
    01:00 +12°C° 0 mm 3 mps 744 mmHg 62%
    02:00 +11°C° 0 mm 3 mps 744 mmHg 64%
    03:00 +11°C° 0 mm 3 mps 743 mmHg 66%
    04:00 +11°C° 0 mm 3 mps 743 mmHg 68%
    05:00 +11°C° 0 mm 3 mps 743 mmHg 70%
    06:00 +11°C° 0 mm 4 mps 743 mmHg 71%
    07:00 +12°C° 0 mm 4 mps 743 mmHg 72%
    08:00 +12°C° 0 mm 4 mps 743 mmHg 69%
    09:00 +13°C° 0 mm 5 mps 743 mmHg 67%
    10:00 +14°C° 0 mm 5 mps 743 mmHg 65%
    11:00 +14°C° 0.1 mm 5 mps 743 mmHg 63%
    12:00 +15°C° 0.1 mm 5 mps 742 mmHg 61%
    13:00 +15°C° 0.1 mm 5 mps 742 mmHg 59%
    14:00 +15°C° 0 mm 4 mps 741 mmHg 60%
    15:00 +15°C° 0 mm 4 mps 741 mmHg 61%
    16:00 +15°C° 0 mm 4 mps 740 mmHg 63%
    17:00 +14°C° 0.2 mm 4 mps 739 mmHg 68%
    18:00 +13°C° 0.2 mm 4 mps 738 mmHg 73%
    19:00 +13°C° 0.2 mm 4 mps 737 mmHg 79%
    20:00 +13°C° 1.4 mm 6 mps 736 mmHg 80%
    21:00 +12°C° 1.4 mm 7 mps 734 mmHg 82%
    22:00 +13°C° 1.4 mm 8 mps 732 mmHg 83%
    23:00 +13°C° 3.2 mm 9 mps 731 mmHg 84%

    24 September, Monday

    Time Temperature Precipitation Wind Pressure Humidity
    00:00 +15°C° 3.2 mm 9 mps 730 mmHg 84%
    01:00 +16°C° 3.2 mm 10 mps 729 mmHg 84%
    02:00 +13°C° 1 mm 11 mps 729 mmHg 85%
    03:00 +10°C° 1 mm 12 mps 730 mmHg 85%
    04:00 +8°C° 1 mm 13 mps 731 mmHg 85%
    05:00 +8°C° 0.6 mm 12 mps 734 mmHg 85%
    06:00 +8°C° 0.6 mm 11 mps 736 mmHg 84%
    07:00 +7°C° 0.6 mm 10 mps 738 mmHg 84%
    08:00 +8°C° 0.2 mm 10 mps 739 mmHg 79%
    09:00 +8°C° 0.2 mm 11 mps 741 mmHg 75%
    10:00 +8°C° 0.2 mm 11 mps 742 mmHg 70%
    11:00 +9°C° 0.1 mm 11 mps 742 mmHg 64%
    12:00 +11°C° 0.1 mm 11 mps 743 mmHg 58%
    13:00 +11°C° 0.1 mm 11 mps 744 mmHg 52%
    14:00 +11°C° 0.1 mm 11 mps 744 mmHg 53%
    15:00 +9°C° 0.1 mm 10 mps 744 mmHg 53%
    16:00 +9°C° 0.1 mm 10 mps 745 mmHg 54%
    17:00 +8°C° 0 mm 9 mps 746 mmHg 56%
    18:00 +9°C° 0 mm 7 mps 746 mmHg 57%
    19:00 +8°C° 0 mm 6 mps 747 mmHg 59%
    20:00 +8°C° 0 mm 6 mps 747 mmHg 60%
    21:00 +7°C° 0 mm 6 mps 748 mmHg 61%
    22:00 +7°C° 0 mm 5 mps 749 mmHg 63%
    23:00 +7°C° 0 mm 5 mps 749 mmHg 64%

    25 September, Tuesday

    Time Temperature Precipitation Wind Pressure Humidity
    00:00 +6°C° 0 mm 5 mps 749 mmHg 66%
    01:00 +6°C° 0 mm 5 mps 750 mmHg 67%
    02:00 +6°C° 0 mm 5 mps 750 mmHg 69%
    03:00 +5°C° 0 mm 5 mps 750 mmHg 71%
    04:00 +5°C° 0 mm 5 mps 751 mmHg 73%
    05:00 +5°C° 0 mm 5 mps 751 mmHg 74%
    06:00 +4°C° 0 mm 6 mps 752 mmHg 74%
    07:00 +4°C° 0 mm 6 mps 752 mmHg 75%
    08:00 +7°C° 0 mm 6 mps 753 mmHg 68%
    09:00 +8°C° 0 mm 5 mps 753 mmHg 62%
    10:00 +10°C° 0 mm 5 mps 753 mmHg 56%
    11:00 +10°C° 0 mm 5 mps 753 mmHg 52%
    12:00 +12°C° 0 mm 5 mps 753 mmHg 49%
    13:00 +11°C° 0 mm 6 mps 753 mmHg 46%
    14:00 +11°C° 0 mm 6 mps 752 mmHg 47%
    15:00 +11°C° 0 mm 6 mps 752 mmHg 49%
    16:00 +11°C° 0 mm 6 mps 751 mmHg 50%
    17:00 +10°C° 0 mm 5 mps 751 mmHg 51%
    18:00 +9°C° 0 mm 5 mps 751 mmHg 53%
    19:00 +9°C° 0 mm 5 mps 750 mmHg 54%
    20:00 +9°C° 0 mm 6 mps 750 mmHg 56%
    21:00 +8°C° 0 mm 7 mps 750 mmHg 58%
    22:00 +8°C° 0 mm 7 mps 749 mmHg 60%
    23:00 +8°C° 0.5 mm 7 mps 749 mmHg 67%

    26 September, Wednesday

    Time Temperature Precipitation Wind Pressure Humidity
    00:00 +8°C° 0.5 mm 7 mps 749 mmHg 74%
    01:00 +6°C° 0.5 mm 7 mps 749 mmHg 81%
    02:00 +6°C° 0.2 mm 7 mps 749 mmHg 83%
    03:00 +7°C° 0.2 mm 6 mps 749 mmHg 84%
    04:00 +7°C° 0.2 mm 5 mps 749 mmHg 85%
    05:00 +7°C° 0 mm 5 mps 750 mmHg 85%
    06:00 +7°C° 0 mm 5 mps 750 mmHg 84%
    07:00 +7°C° 0 mm 5 mps 751 mmHg 83%
    08:00 +8°C° 0 mm 5 mps 751 mmHg 75%
    09:00 +10°C° 0 mm 5 mps 751 mmHg 67%
    10:00 +11°C° 0 mm 6 mps 752 mmHg 59%
    11:00 +13°C° 0 mm 5 mps 752 mmHg 56%
    12:00 +14°C° 0 mm 5 mps 752 mmHg 53%
    13:00 +14°C° 0 mm 5 mps 752 mmHg 51%
    14:00 +14°C° 0 mm 5 mps 752 mmHg 52%
    15:00 +14°C° 0 mm 4 mps 752 mmHg 54%
    16:00 +14°C° 0 mm 4 mps 752 mmHg 55%
    17:00 +13°C° 0 mm 3 mps 752 mmHg 61%
    18:00 +11°C° 0 mm 3 mps 752 mmHg 67%
    19:00 +10°C° 0 mm 2 mps 753 mmHg 73%
    20:00 +10°C° 0 mm 2 mps 753 mmHg 76%
    21:00 +10°C° 0 mm 2 mps 753 mmHg 78%
    22:00 +9°C° 0 mm 2 mps 753 mmHg 80%
    23:00 +9°C° 0 mm 3 mps 752 mmHg 81%
    Show more